Aeroporto :
LOGIN :

Iscrizione | Disclaimer

   EN    FR    IT 

 










Sommario :    VFR   VFR Marginale   IFR   IFR Intensivo   IFR Molto Intensivo
Visibilità : 
Base nubi : 
>= 8 km
>= 3000ft
5 / 8 km
1000 / 3000 ft
1500m / 5 km
500 / 1000 ft
800 / 1500m
200 / 500 ft
< 800m
< 200 ft
Simboli :   Temporali  Nebbia  Neve Forte  Precipitazioni Forti  Vento > 20 kt
SIGMETs :   Varie  Temporali  Ghiacco  Turbolenza  Onda orograficha  Ceneri Vulcaniche







- Altitudine del aeroporto : 1058 ft
- Codice IATA : SCN


EDDR - Saarbrücken

ULTIMO METAR :
  • 232020Z 07005KT CAVOK 13/08 Q1017 NOSIG

METARs OBSOLETI :
  • 231950Z 07006KT CAVOK 14/07 Q1017 NOSIG
  • 231920Z 05003KT CAVOK 16/09 Q1016 NOSIG
  • 231850Z 03003KT CAVOK 18/07 Q1016 NOSIG
  • 231820Z VRB02KT CAVOK 20/07 Q1016 NOSIG
  • 231750Z VRB01KT CAVOK 20/06 Q1016 NOSIG

TAF TAF EDDR
Valido dal 23 a 18 ore il 24 a 18 ore UTC


231700Z 2318/2418 VRB03KT CAVOK
Nessun NOTAM noto per questo aeroporto.



MetMap, La meteo Aeronautica in un colpo d'occhio ! - Copyright ORBIFLY Dicembre 2007 - Disclaimer

ORBIFLY MET'MAP TEAM :

Programmazione e sviluppo : Alexandra Zaïnal
Concezione e sviluppo : Baudouin d'Aumeries
Co-Programmazione e sviluppo : Marc-Olivier Méhu
Supporto tecnico e logistico : Manuel Goepfert
Aiuto per la traduzione : Arnaldo La Scala

Contatto : metmap@orbifly.com




FONTI E CREDITI :

   NOAA